Location: Unspecified
(48.5910°N, 12.0210°E)
Time: 13:26:35
(UTC+00:00)

Daily predictions for brighter satellites

Satellite Brightness Start Highest point End
(mag) Time Altitude Azimuth Time Altitude Azimuth Time Altitude Azimuth
Cosmos 724 4.5 15:40:57 10° NW 15:47:07 89° ENE 15:53:20 10° SE
SL-08 R/B 4.5 15:46:09 10° NE 15:49:47 22° E 15:53:23 10° SE
ATLAS CENTAUR R/B 2.8 15:47:20 10° NNW 15:50:50 22° NNE 15:54:08 10° E
Cosmos 2221 4.2 15:48:31 10° ESE 15:51:04 15° E 15:53:36 10° NE
Cosmos 2074 Rocket 4.0 15:49:18 10° S 15:55:33 75° E 16:01:48 10° NNE
Cosmos 1812 Rocket 3.6 15:51:27 10° S 15:55:48 66° E 16:00:09 10° NNE
CORIOLIS 4.5 15:51:07 10° SE 15:56:10 43° ENE 16:01:15 10° N
Cosmos 2151 3.9 15:52:18 10° NNW 15:56:23 52° W 16:00:27 10° S
Cosmos 1340 3.2 15:53:44 10° SSE 15:57:08 36° E 16:00:34 10° NNE
Cosmos 1452 Rocket 3.5 15:52:01 10° SSW 15:57:17 81° ESE 16:02:35 10° NNE
USA 290 4.1 15:55:20 10° NW 15:58:22 37° WSW 16:01:22 10° S
ARGOS 3.3 15:58:22 10° SE 16:03:35 51° ENE 16:08:50 10° N
SMAP 3.2 15:59:57 10° SE 16:04:26 50° ENE 16:08:57 10° N
Cosmos 2333 Rocket 2.2 15:59:52 10° NNW 16:05:32 68° ENE 16:11:10 10° SE
Lacrosse 5 2.9 16:01:14 10° WNW 16:05:47 32° N 16:10:17 10° ENE
NOAA 12 4.5 16:01:13 10° S 16:06:33 73° WSW 16:11:53 10° NNW
SeaSat 1 4.2 16:04:01 10° ENE 16:06:38 14° ESE 16:09:13 10° SE
BREEZE-M R/B 3.6 16:05:36 10° W 16:08:06 77° SSW 16:16:08 10° ESE
Orbus 7S? 3.7 16:04:09 10° SSW 16:08:08 40° SE 16:10:29 12° ENE
Cosmos 2322 4.0 16:02:43 10° NNW 16:08:14 45° NE 16:13:43 10° SE
Cosmos 1862 4.0 16:04:27 10° NNW 16:08:23 59° W 16:12:15 10° S
Cosmos 2360 Rocket 2.4 16:03:28 10° NNW 16:09:08 81° WSW 16:14:47 10° SSE
Cosmos 192 4.3 16:06:32 10° SSW 16:11:25 76° ESE 16:16:21 10° NNE
Cosmos 1666 4.0 16:09:02 10° NNE 16:11:54 20° ENE 16:14:44 10° ESE
Cosmos 1812 4.5 16:10:17 10° ESE 16:12:06 13° E 16:13:10 12° ENE
COSMO-SKYMED 1 4.2 16:10:24 10° NE 16:12:57 15° E 16:15:31 10° SE
Landsat 4 3.8 16:11:21 10° S 16:15:04 78° WSW 16:18:50 10° NNW
Cosmos 2344 4.4 16:07:29 10° NW 16:15:10 43° NNE 16:25:12 10° E
Cosmos-2242 3.1 16:13:42 10° SSW 16:17:58 82° W 16:22:18 10° N
Cosmos 1110 Rocket 4.0 16:13:10 10° SSW 16:18:22 86° ESE 16:23:39 10° NNE
Iridium 4 Rocket 4.4 16:18:32 10° SE 16:22:51 26° E 16:26:52 10° NNE
Cosmos 2154 Rocket 4.0 16:17:07 10° S 16:23:20 86° E 16:29:35 10° N
Radarsat Rocket 4.5 16:16:42 10° SE 16:23:57 55° ENE 16:30:23 10° N
Cosmos 2184 Rocket 4.3 16:18:10 10° SSW 16:24:18 73° W 16:30:31 10° N
Cosmos 389 Rocket 4.3 16:21:57 10° NNW 16:25:01 33° W 16:28:05 10° SSW
Cosmos 1782 4.1 16:22:47 10° SE 16:25:37 20° E 16:27:15 15° NE
NOSS 2-3 (E) 4.4 16:22:26 10° S 16:25:37 27° ESE 16:28:02 16° ENE
Cosmos 968 Rocket 3.4 16:21:08 10° NNW 16:26:17 72° ENE 16:31:27 10° SSE
Intercosmos 24 4.4 16:21:14 10° NNW 16:26:52 80° W 16:30:52 10° S
SL-8 Rocket 4.4 16:21:51 10° SSE 16:27:32 39° E 16:33:13 10° NNE
COSMOS 2428 2.9 16:22:13 10° NNW 16:27:44 48° NE 16:33:12 10° SE
CZ-2C R/B 2.8 16:22:35 10° N 16:27:51 74° WNW 16:33:00 10° SSW
ATLAS 3B R/B 2.8 16:22:00 10° SSW 16:28:34 62° ESE 16:35:08 12° NE
CZ-4B R/B 3.0 16:25:51 10° SE 16:29:24 44° ENE 16:33:09 10° N
Lacrosse 5 rocket 4.0 16:27:13 10° WNW 16:30:53 25° SW 16:34:35 10° S
Cosmos 2297 Rocket 4.0 16:30:27 10° ESE 16:31:52 11° E 16:31:52 11° E
ADEOS 3.5 16:29:46 10° SSE 16:34:59 82° ENE 16:40:15 10° NNW
Cosmos 1339 Rocket 4.5 16:30:02 10° N 16:36:10 65° ENE 16:42:23 10° SSE
Cosmos 2366 rocket 4.4 16:34:30 10° SSE 16:40:18 41° E 16:46:11 10° NNE
Nadezhda 3 Rocket 4.4 16:34:01 10° NNW 16:40:20 69° W 16:46:39 10° S
Cosmos 807 4.4 16:37:42 10° SSE 16:40:29 43° E 16:42:35 17° NNE
CZ-4C R/B 4.1 16:39:21 19° NE 16:41:13 30° E 16:44:39 10° SSE
USA 234 3.9 16:36:34 16° ENE 16:41:30 43° N 16:47:36 10° WNW
Cosmos 1766 Rocket 3.5 16:38:07 10° N 16:42:38 80° E 16:47:06 10° SSE
Cosmos 962 Rocket 4.4 16:37:48 10° S 16:43:56 69° E 16:50:11 10° NNE
Cosmos 1331 Rocket 4.4 16:39:11 10° SSW 16:44:26 66° WNW 16:49:44 10° NNE
Cosmos 1500 3.0 16:40:48 10° N 16:44:34 67° E 16:48:19 10° SSE
SJ-11-01 4.2 16:40:17 10° SSE 16:44:59 85° ENE 16:49:42 10° NNW
CZ-4B R/B 4.1 16:41:44 10° ESE 16:46:16 26° ENE 16:50:44 10° N
SL-16 R/B 3.8 16:45:14 10° N 16:48:35 16° NE 16:49:02 15° NE
SL-27 R/B 2.2 16:46:00 10° S 16:49:10 57° ESE 16:50:41 27° NE
H-2A R/B 3.6 16:44:47 10° SSW 16:49:32 37° W 16:54:13 10° NNW
Cosmos 2219 Rocket 2.2 16:44:48 10° NNW 16:50:26 83° WSW 16:56:01 10° SSE
Meteor 1-20 Rocket 4.2 16:44:42 10° N 16:50:27 84° E 16:56:15 10° SSE
CENTAUR R/B 4.2 16:46:17 10° NW 16:52:08 26° N 16:56:46 16° NE
IKONOS-2 4.4 16:48:08 10° NNE 16:52:21 77° ESE 16:56:34 10° S
SL-4 R/B 2.3 16:49:29 10° WNW 16:53:44 55° N 16:55:33 29° ENE
Cosmos 2218 Rocket 4.2 16:48:10 10° SSE 16:54:18 52° E 17:00:29 10° NNE
CZ-2D R/B 4.5 16:51:51 10° S 16:55:29 44° W 16:59:10 10° NNW
ISS -3.6 16:52:12 10° WNW 16:55:32 71° SSW 16:57:24 24° SE
CZ-4B DEB 4.3 16:52:43 10° SE 16:58:06 54° ENE 17:03:31 10° N
Cosmos 1980 4.2 16:54:00 10° NNW 16:59:16 37° NE 17:02:18 22° ESE
Cosmos 2084 Rocket 4.1 16:56:30 10° S 16:59:56 29° ESE 17:00:24 28° ESE
SKYMED 2 3.9 16:59:00 22° NE 17:01:24 43° E 17:05:32 10° S
DELTA 2 DEB (DPAF) 4.3 16:57:32 10° NNE 17:01:58 76° WNW 17:06:21 10° SSW
NOAA 6 4.1 16:57:04 10° SSE 17:02:13 83° WSW 17:07:23 10° NNW
Cosmos 2237 Rocket 2.7 16:59:00 10° NNW 17:04:19 38° NE 17:06:58 25° E
Meteor PRIRODA 4.4 17:02:02 10° S 17:05:35 53° W 17:09:11 10° NNW
YAOGAN 1 4.0 17:09:32 21° NNE 17:09:32 21° NNE 17:11:25 10° N
SL-08 RB Rocket 4.1 17:03:15 10° S 17:07:42 62° W 17:12:09 10° NNW
BREEZE-M DEB (TANK) 4.2 17:05:03 10° W 17:08:51 88° SSW 17:20:45 16° ESE
SL-24 DEB 4.3 17:08:12 10° S 17:12:58 82° W 17:17:46 10° N
CZ-4C R/B 2.5 17:10:46 10° WSW 17:15:35 58° NW 17:19:25 21° NNE
Cosmos 1544 2.8 17:12:14 10° N 17:15:45 72° E 17:19:13 10° SSE
SJ 16-02 1.7 17:12:12 10° N 17:16:24 41° ENE 17:16:24 41° ENE
Cosmos 1992 Rocket 4.0 17:13:33 10° S 17:18:41 61° ESE 17:21:08 30° NE
Cosmos 1486 Rocket 3.8 17:13:35 10° NNW 17:18:48 74° ENE 17:24:00 10° SSE
NOSS 3-1 (A) 3.9 17:14:41 10° S 17:19:05 30° ESE 17:19:12 30° ESE
NOSS 3-1 (C) 3.2 17:16:42 10° SSW 17:21:44 57° ESE 17:23:52 36° ENE
BlueWalker 3 2.4 17:20:24 10° WNW 17:24:10 43° N 17:24:20 43° NNE
ARGOS Delta rocket 4.3 17:21:45 10° N 17:26:25 63° WNW 17:31:20 10° SSW
Tiangong -0.2 17:24:09 10° SW 17:26:33 21° S 17:26:33 21° S
SL-08 R/B 4.2 17:23:22 10° N 17:27:48 47° WNW 17:32:11 10° SW
Cosmos 2221 3.0 17:23:44 10° SSW 17:28:03 60° WNW 17:32:22 10° N
YAOGAN 3 4.4 17:24:11 10° SSE 17:28:30 72° ENE 17:32:51 10° N
NOSS 0 Rocket 3.8 17:23:44 10° NNW 17:30:02 84° ENE 17:36:17 10° SSE
ATLAS CENTAUR R/B 1.4 17:25:39 10° NW 17:30:02 82° SW 17:31:31 39° SSE
NOSS 2-3 (D) 3.3 17:28:39 10° SW 17:32:33 84° NW 17:33:23 57° NNE
NOSS 2-3 (C) 3.4 17:28:48 10° SW 17:32:42 79° NW 17:33:38 53° NNE
Meteor 1-14 Rocket 4.2 17:28:10 10° N 17:33:42 57° ENE 17:39:18 10° SSE
Cosmos 2341 Rocket 4.5 17:30:16 10° SSW 17:36:32 62° WNW 17:42:48 10° N
Cosmos 1959 Rocket 4.4 17:32:20 10° S 17:38:26 83° W 17:44:36 10° N
SKYMED 3 4.3 17:40:16 69° NNE 17:40:45 83° ESE 17:44:58 10° SSW
DMSP B5D2-2 4.3 17:36:18 10° N 17:41:31 70° WNW 17:46:41 10° SSW
Timation 1 Rocket 4.3 17:36:02 10° SSW 17:42:00 87° WNW 17:44:51 33° NNE
Cosmos 1842 Rocket 3.9 17:37:48 10° SSW 17:42:11 64° WNW 17:44:57 22° N
Cosmos 1461 4.5 17:38:57 10° NNW 17:41:34 26° N 17:41:34 26° N
Cosmos 1000 Rocket 4.5 17:38:08 10° N 17:44:19 57° ENE 17:50:31 10° SSE
SeaSat 1 2.3 17:43:25 50° NNE 17:44:46 87° ESE 17:49:43 10° SSW
PSLV R/B 3.8 17:45:45 80° NW 17:45:45 80° NW 17:49:36 10° NNW
Cosmos 1933 4.2 17:42:36 10° SSW 17:46:30 49° WNW 17:48:37 24° NNW
Cosmos 1812 3.3 17:43:30 10° SSW 17:47:11 53° WNW 17:48:04 42° NNW
Cosmos 1666 4.3 17:43:51 10° NNW 17:47:20 35° W 17:50:47 10° SSW
Aureole 1 Rocket 3.4 17:44:03 10° NNW 17:48:42 67° ENE 17:49:09 64° E
Cosmos 1500 Rocket 3.5 17:44:36 10° NNW 17:48:57 82° W 17:53:15 10° S
COSMO-SKYMED 1 2.9 17:47:38 32° N 17:49:32 63° WNW 17:53:50 10° SSW
Lacrosse 5 2.5 17:44:57 10° NW 17:49:29 41° N 17:49:29 41° N
Cosmos 1408 Rocket 4.4 17:46:18 10° NNW 17:50:40 51° W 17:54:58 10° S
SL-08 R/B 4.4 17:48:58 10° S 17:55:18 71° E 18:00:00 20° NNE
Cosmos 1782 4.2 17:57:53 10° SW 18:01:32 37° WNW 18:02:45 29° NW
MOS 1-B 4.3 17:57:30 10° SSE 18:03:17 81° WSW 18:09:06 10° NNW
Cosmos 1743 Rocket 4.0 18:02:29 10° NNW 18:11:57 - S 18:06:49 62° W
Feng Yun 1-1 Rocket 4.4 18:09:36 63° NNE 18:09:36 63° NNE 18:14:42 10° NNW
Cosmos 1354 Rocket 4.0 18:05:24 10° NNW 18:10:39 83° WNW 18:10:39 83° WNW
COSMOS 2428 4.4 18:06:48 10° NW 18:11:47 32° WSW 18:16:44 10° SSW
Cosmos 2227 Rocket 3.9 18:06:48 10° S 18:08:32 20° S 18:08:32 20° S
Meteor 2-6 Rocket 4.3 18:08:51 10° S 18:14:04 69° SSE 18:14:04 69° SSE
Cosmos 2297 Rocket 2.6 18:09:32 10° SSW 18:13:43 50° S 18:13:43 50° S
ATLAS 3B R/B 3.6 18:13:09 10° WSW 18:19:39 43° NNW 18:22:23 31° NNE
USA 234 3.5 18:23:56 53° NNE 18:23:56 53° NNE 18:30:12 10° NW
Cosmos 1821 Rocket 4.1 18:17:48 10° SSW 18:24:04 72° W 18:27:31 28° N
CZ-4B R/B 3.7 18:20:59 10° S 18:26:29 58° WSW 18:31:55 10° NNW
Cosmos 2344 4.3 18:21:44 10° NW 18:30:31 77° SW 18:39:12 22° SSE
ISS -0.4 18:29:51 10° W 18:30:21 12° WSW 18:30:21 12° WSW
SL-4 R/B 4.2 18:29:16 10° WNW 18:30:55 23° WNW 18:30:55 23° WNW
SL-16 R/B 3.6 18:28:21 10° NNW 18:30:56 27° NNW 18:30:56 27° NNW
BREEZE-M DEB (TANK) 3.9 18:33:05 10° WNW 18:39:19 45° W 18:39:19 45° W
USA 229 DEB 4.3 18:35:59 10° SSW 18:39:59 42° SSW 18:39:59 42° SSW
USA 229 4.3 18:36:06 10° SSW 18:40:02 41° SSW 18:40:02 41° SSW
CENTAUR R/B 3.9 18:37:57 10° NW 18:43:57 37° N 18:43:57 37° N
Cosmos 2237 Rocket 3.2 18:43:07 10° NW 18:48:27 42° WSW 18:48:52 42° WSW
SJ 16-02 3.7 18:51:10 10° NW 18:53:24 21° WNW 18:53:24 21° WNW
CZ-4C R/B 4.1 19:01:00 10° WNW 19:04:35 23° NNW 19:04:35 23° NNW
